JA0BES-13 Weather Reports


Display with metric or nautical units.
time (UTC)temp
F
wind
direction
speed
MPH
gust
MPH
rain 1hr
in
rain 24hr
in
rain mn
in
humidity
%
barometer
mb
20260508215820 49 225 1.0 2.0 0.00 0.00 0.00 94 1010.5
20260508214819 48 180 0.0 3.0 0.00 0.00 0.00 94 1009.9
20260508213819 48 157 0.0 3.0 0.00 0.00 0.00 94 1009.6
20260508212819 48 225 1.0 1.0 0.00 0.00 0.00 93 1009.0
20260508211819 48 180 0.0 0.0 0.00 0.00 0.00 95 1008.5
20260508210818 47 180 0.0 1.0 0.00 0.00 0.00 94 1008.2
20260508120759 56 137 0.0 3.0 0.00 0.00 0.13 100 1005.4
20260508115759 57 159 1.0 3.0 0.00 0.00 0.13 100 1005.3
20260508114758 58 180 0.0 2.0 0.00 0.00 0.13 100 1005.1
20260508113758 58 220 0.0 0.0 0.00 0.00 0.13 100 1005.2
20260508112757 58 135 0.0 2.0 0.00 0.00 0.13 100 1005.0
20260508111757 59 220 0.0 1.0 0.00 0.00 0.13 100 1004.8
20260508110757 59 180 0.0 2.0 0.00 0.00 0.13 100 1004.8
20260508105757 59 225 0.0 1.0 0.00 0.00 0.13 100 1004.4
20260508104756 60 216 0.0 0.0 0.00 0.00 0.13 100 1004.3
20260508103756 60 211 0.0 1.0 0.00 0.00 0.13 100 1004.3
20260508102755 60 180 0.0 1.0 0.00 0.00 0.13 100 1004.2
20260508101755 61 216 0.0 1.0 0.00 0.00 0.13 100 1003.9
20260508100755 62 225 0.0 3.0 0.00 0.00 0.13 100 1003.3
20260508095755 63 225 0.0 3.0 0.00 0.00 0.13 100 1003.3
20260508094754 63 180 0.0 0.0 0.00 0.00 0.13 100 1003.0
20260508093754 64 180 1.0 1.0 0.00 0.00 0.13 98 1002.9
20260508092753 64 225 0.0 3.0 0.00 0.00 0.09 94 1003.1
20260508091753 65 211 0.0 1.0 0.00 0.00 0.00 91 1002.8
20260508090753 65 261 3.0 3.0 0.00 0.00 0.00 90 1002.7
20260508085752 66 110 1.0 4.0 0.00 0.00 0.00 91 1002.7
20260508084752 66 216 0.0 1.0 0.00 0.00 0.00 91 1002.3
20260508083752 66 225 0.0 1.0 0.00 0.00 0.00 93 1002.1
20260508082751 66 189 0.0 1.0 0.00 0.00 0.00 92 1002.3
20260508081751 67 207 0.0 2.0 0.00 0.00 0.00 92 1002.4
20260508080750 67 155 0.0 1.0 0.00 0.00 0.00 92 1002.3
20260508075750 67 164 0.0 1.0 0.00 0.00 0.00 92 1002.6
20260508074750 67 180 0.0 1.0 0.00 0.00 0.00 93 1002.7
20260508073750 67 64 0.0 2.0 0.00 0.00 0.00 92 1002.6
20260508072749 67 143 1.0 1.0 0.00 0.00 0.00 91 1002.3
20260508071749 68 180 0.0 2.0 0.00 0.00 0.00 90 1002.5
20260508070748 68 180 0.0 1.0 0.00 0.00 0.00 89 1002.6
20260508065748 69 135 0.0 1.0 0.00 0.00 0.00 89 1002.7
20260508064748 70 120 0.0 1.0 0.00 0.00 0.00 89 1002.4
20260508063748 70 180 0.0 2.0 0.00 0.00 0.00 85 1002.1
20260508062747 71 180 0.0 0.0 0.00 0.00 0.00 82 1001.8
20260508061747 72 225 0.0 1.0 0.00 0.00 0.00 78 1002.4
20260508060746 72 225 0.0 0.0 0.00 0.00 0.00 75 1002.0
20260508055746 72 180 0.0 1.0 0.00 0.00 0.00 74 1002.0
20260508054746 72 191 0.0 1.0 0.00 0.00 0.00 74 1001.9
20260508053745 72 225 0.0 1.0 0.00 0.00 0.00 75 1001.8
20260508052745 72 225 0.0 3.0 0.00 0.00 0.00 75 1001.8
20260508051745 72 144 0.0 1.0 0.00 0.00 0.00 75 1002.3
20260508050744 73 135 0.0 2.0 0.00 0.00 0.00 74 1002.6
20260508045744 74 277 1.0 1.0 0.00 0.00 0.00 73 1002.5
20260508044744 74 118 1.0 1.0 0.00 0.00 0.00 72 1002.4
20260508043743 74 225 0.0 1.0 0.00 0.00 0.00 71 1002.4
20260508042743 75 184 0.0 2.0 0.00 0.00 0.00 71 1002.9
20260508041743 75 123 1.0 3.0 0.00 0.00 0.00 70 1002.8
20260508040742 75 184 1.0 2.0 0.00 0.00 0.00 70 1003.0
20260508035742 76 142 0.0 4.0 0.00 0.00 0.00 70 1003.0
20260508034741 75 225 0.0 3.0 0.00 0.00 0.00 73 1003.1
20260508033741 74 279 2.0 5.0 0.00 0.00 0.00 74 1003.2
20260508032741 73 119 2.0 4.0 0.00 0.00 0.00 76 1003.3
20260508031741 73 114 3.0 4.0 0.00 0.00 0.00 76 1003.5
20260508030740 73 108 2.0 3.0 0.00 0.00 0.00 77 1003.9
20260508025740 73 180 0.0 2.0 0.00 0.00 0.00 78 1004.0
20260508024739 73 123 1.0 2.0 0.00 0.00 0.00 78 1004.1
20260508023739 73 148 1.0 1.0 0.00 0.00 0.00 78 1004.0
20260508022739 74 225 0.0 1.0 0.00 0.00 0.00 77 1004.2
20260508021739 73 162 0.0 2.0 0.00 0.00 0.00 79 1004.4
20260508020738 73 180 0.0 1.0 0.00 0.00 0.00 80 1004.8
20260508015738 72 229 0.0 3.0 0.00 0.00 0.00 81 1004.8
20260508014737 70 196 0.0 2.0 0.00 0.00 0.00 81 1005.1
20260508013737 69 135 1.0 1.0 0.00 0.00 0.00 85 1004.9
20260508012737 68 155 1.0 2.0 0.00 0.00 0.00 85 1005.0
20260508011736 67 225 1.0 1.0 0.00 0.00 0.00 87 1005.6
20260508010736 67 225 0.0 2.0 0.00 0.00 0.00 87 1005.8
20260508005736 66 202 1.0 3.0 0.00 0.00 0.00 88 1005.8
20260508004735 66 218 0.0 1.0 0.00 0.00 0.00 91 1005.7
20260508003735 65 180 0.0 0.0 0.00 0.00 0.00 92 1005.6
20260508002734 65 180 0.0 1.0 0.00 0.00 0.00 92 1005.9
20260508001734 64 220 1.0 1.0 0.00 0.00 0.00 93 1006.0
20260508000734 64 225 0.0 0.0 0.00 0.00 0.00 94 1006.1
20260507235734 63 180 0.0 0.0 0.00 0.00 0.00 94 1006.2
20260507234733 63 225 0.0 3.0 0.00 0.00 0.00 95 1006.7
20260507233733 63 180 0.0 0.0 0.00 0.00 0.00 96 1006.5
20260507232732 62 162 1.0 1.0 0.00 0.00 0.00 97 1006.8
20260507231732 62 135 0.0 1.0 0.00 0.00 0.00 97 1007.1
20260507222732 60 180 0.0 0.0 0.00 0.00 0.00 100 1007.3